Weather History for Phoenix, AZ

Change the Weather History Date:

Thursday, May 30, 2013

  Actual Average Record
Temperature  
Mean Temperature 89 °F 86 °F  
Max Temperature 100 °F 99 °F 114 °F (1910)
Min Temperature 77 °F 73 °F 51 °F (1918)
Degree Days  
Heating Degree Days 0 0  
Month to date heating degree days 0 0  
Since 1 July heating degree days 881 934  
Cooling Degree Days 24 21  
Month to date cooling degree days 569 510  
Year to date cooling degree days 1073 865  
Growing Degree Days 38 (Base 50)    
Moisture  
Dew Point 46 °F    
Average Humidity 26    
Maximum Humidity 36    
Minimum Humidity 15    
Precipitation  
Precipitation 0.00 in 0.01 in 0.01 in (1924)
Month to date precipitation 0.00 0.11  
Year to date precipitation 2.61 3.21  
Snow  
Snow 0.00 in - - ()
Month to date snowfall 0.0  
Year to date snowfall 0.0  
Since 1 July snowfall 0.0  
Snow Depth 0.00 in    
Sea Level Pressure  
Sea Level Pressure 29.72 in    
Wind  
Wind Speed 8 mph (West)    
Max Wind Speed 20 mph    
Max Gust Speed 26 mph    
Visibility 10 miles    
Events      
T = Trace of Precipitation, MM = Missing Value Source: NWS Daily Summary

Daily Weather History Graph

Daily Weather History Graph

Search for Another Location

Airport:

Trip Planner

Search our weather history database for the weather conditions in past years. The results will help you decide how hot, cold, wet, or windy it might be!

Date:

Astronomy

May. 30, 2013 Rise Set
Actual Time 5:19 AM MST 7:31 PM MST
Civil Twilight 4:51 AM MST 8:00 PM MST
Nautical Twilight 4:16 AM MST 8:34 PM MST
Astronomical Twilight 3:39 AM MST 9:12 PM MST
Moon No Moon Rise 11:20 AM MST (5/30)
Length of Visible Light 15h 08m
Length of Day
14h 11m
Waning Gibbous, 61% of the Moon is Illuminated
May 30
Waning Gibbous
May 31
Last Quarter
Jun 8
New
Jun 16
First Quarter
Jun 23
Full

Hourly Weather History & Observations

Time (MST) Temp. Heat Index Dew Point Humidity Pressure Visibility Wind Dir Wind Speed Gust Speed Precip Events Conditions
12:51 AM 84.9 °F - 45.0 °F 25% 29.62 in 10.0 mi WNW 9.2 mph - N/A   Clear
1:51 AM 82.9 °F - 45.0 °F 26% 29.64 in 10.0 mi South 4.6 mph - N/A   Clear
2:51 AM 82.9 °F - 45.0 °F 26% 29.64 in 10.0 mi North 3.5 mph - N/A   Clear
3:51 AM 81.0 °F - 46.9 °F 30% 29.66 in 10.0 mi Calm Calm - N/A   Clear
4:51 AM 78.1 °F - 48.0 °F 35% 29.68 in 10.0 mi East 5.8 mph - N/A   Clear
5:51 AM 77.0 °F - 48.0 °F 36% 29.70 in 10.0 mi East 6.9 mph - N/A   Clear
6:51 AM 78.1 °F - 48.9 °F 36% 29.73 in 10.0 mi East 5.8 mph - N/A   Clear
7:51 AM - - - N/A% - - North - - N/A   Unknown
8:51 AM 84.9 °F - 50.2 °F 30% 29.81 in 10.0 mi East 5.8 mph - N/A   Clear
9:51 AM 88.0 °F - 48.9 °F 26% 29.81 in 10.0 mi Variable 4.6 mph - N/A   Clear
10:51 AM 89.1 °F - 46.0 °F 22% 29.81 in 10.0 mi ENE 5.8 mph - N/A   Partly Cloudy
11:51 AM 91.9 °F - 44.1 °F 19% 29.80 in 10.0 mi Variable 4.6 mph - N/A   Partly Cloudy
12:51 PM 93.9 °F - 45.0 °F 18% 29.78 in 10.0 mi Variable 3.5 mph - N/A   Partly Cloudy
1:51 PM 97.0 °F - 43.0 °F 16% 29.76 in 10.0 mi Variable 6.9 mph - N/A   Partly Cloudy
2:51 PM 98.1 °F - 42.1 °F 15% 29.74 in 10.0 mi SW 6.9 mph 17.3 mph N/A   Partly Cloudy
3:51 PM 97.0 °F - 41.0 °F 14% 29.72 in 10.0 mi West 6.9 mph - N/A   Partly Cloudy
4:51 PM 97.0 °F - 42.1 °F 15% 29.70 in 10.0 mi West 11.5 mph - N/A   Partly Cloudy
5:51 PM 97.0 °F - 41.0 °F 14% 29.69 in 10.0 mi WNW 11.5 mph 18.4 mph N/A   Partly Cloudy
6:51 PM 97.0 °F - 42.1 °F 15% 29.70 in 10.0 mi WNW 15.0 mph - N/A   Partly Cloudy
7:51 PM 95.0 °F - 41.0 °F 15% 29.71 in 10.0 mi WNW 15.0 mph - N/A   Partly Cloudy
8:51 PM 93.0 °F - 45.0 °F 19% 29.73 in 10.0 mi West 13.8 mph - N/A   Clear
9:51 PM 90.0 °F - 50.0 °F 25% 29.70 in 10.0 mi West 15.0 mph - N/A   Clear
10:51 PM 88.0 °F - 52.0 °F 29% 29.71 in 10.0 mi West 13.8 mph - N/A   Clear
11:51 PM 86.0 °F 84.2 °F 54.0 °F 33% 29.73 in 10.0 mi West 12.7 mph - N/A   Clear